Tracking 23757 objects as of 25-Oct-2021
HD Live streaming from Space Station
objects crossing your sky now

ARIANE 42L+3 R/B

Track ARIANE 42L+3 R/B now!


NORAD ID: 23671
Int'l Code: 1995-049B
Perigee: 396.1 km
Apogee: 35,760.8 km
Inclination: 7.7 °
Period: 634.1 minutes
Semi major axis: 24449 km
RCS: 18.3882 m2 (large)
Launch date: September 24, 1995
Source: France (FR)
Launch site: FRENCH GUIANA (FRGUI)

Note: This is a ROCKET BODY
aabbcc
Your satellite tracking list
Your tracking list is empty




NASA's NSSDC Master Catalog

Two Line Element Set (TLE):
1 23671U 95049B   21297.59389512 -.00000012  00000-0  38791-3 0  9994
2 23671   7.6914  25.2098 7232201 351.7739   1.0352  2.27090317213598
Source of the keplerian elements: AFSPC